DLR82 KJFK-KMIA

Flight info

Callsign DLR82
Flight time 1h 38m
Altitude 28000
Route WAVEY EMJAY Q167 KALDA Q101 SKARP Y313 HOAGG BNFSH3
Aircraft CONC/M-SDE2E3FGHIRWXY/LB1

Departure

Time 2026-04-30 19:36
Airport John F. Kennedy International Airport (KJFK)

Arrival

Time 2026-04-30 21:15
Airport Miami International Airport (KMIA)
Time Latitude Longitude Altitude Speed Heading
2026-04-30 19:14 40.64906 -73.79056 15 ft 0 kts 172°
2026-04-30 19:21 40.64918 -73.79060 15 ft 2 kts 165°
2026-04-30 19:22 40.64947 -73.79079 15 ft 2 kts 130°
2026-04-30 19:22 40.64954 -73.79128 15 ft 0 kts 64°
2026-04-30 19:23 40.64973 -73.79080 15 ft 5 kts 60°
2026-04-30 19:24 40.64989 -73.79045 15 ft 2 kts 60°
2026-04-30 19:24 40.64997 -73.79028 17 ft 2 kts 60°
2026-04-30 19:24 40.65030 -73.78952 15 ft 7 kts 60°
2026-04-30 19:25 40.65174 -73.78686 15 ft 14 kts 61°
2026-04-30 19:26 40.65273 -73.78452 16 ft 10 kts 61°
2026-04-30 19:26 40.65235 -73.78311 15 ft 8 kts 121°
2026-04-30 19:26 40.65206 -73.78247 15 ft 8 kts 121°
2026-04-30 19:27 40.65151 -73.78126 15 ft 8 kts 121°
2026-04-30 19:27 40.65134 -73.78088 16 ft 0 kts 120°
2026-04-30 19:29 40.65127 -73.78073 15 ft 7 kts 120°
2026-04-30 19:29 40.65120 -73.78000 15 ft 9 kts 38°
2026-04-30 19:30 40.65170 -73.77960 15 ft 0 kts 32°
2026-04-30 19:30 40.65321 -73.77841 16 ft 19 kts 37°
2026-04-30 19:31 40.65231 -73.77540 15 ft 18 kts 121°
2026-04-30 19:31 40.65168 -73.77399 15 ft 18 kts 121°
2026-04-30 19:31 40.65046 -73.77134 16 ft 16 kts 121°
2026-04-30 19:32 40.64988 -73.77009 16 ft 16 kts 122°
2026-04-30 19:32 40.64935 -73.76887 15 ft 15 kts 117°
2026-04-30 19:32 40.64883 -73.76770 16 ft 13 kts 122°
2026-04-30 19:32 40.64888 -73.76687 15 ft 10 kts 54°
2026-04-30 19:33 40.64945 -73.76642 16 ft 10 kts 24°
2026-04-30 19:33 40.65003 -73.76601 15 ft 9 kts 31°
2026-04-30 19:33 40.65047 -73.76566 15 ft 6 kts 31°
2026-04-30 19:33 40.65085 -73.76536 15 ft 6 kts 31°
2026-04-30 19:34 40.65104 -73.76489 15 ft 6 kts 90°
2026-04-30 19:34 40.65088 -73.76438 16 ft 6 kts 121°
2026-04-30 19:34 40.65036 -73.76363 15 ft 6 kts 184°
2026-04-30 19:35 40.65005 -73.76376 15 ft 0 kts 201°
2026-04-30 19:35 40.64941 -73.76418 15 ft 36 kts 212°
2026-04-30 19:36 40.64490 -73.76772 15 ft 113 kts 210°
2026-04-30 19:36 40.63628 -73.77446 19 ft 172 kts 211°
2026-04-30 19:36 40.61282 -73.79263 1370 ft 188 kts 212°
2026-04-30 19:37 40.60143 -73.80116 2221 ft 194 kts 211°
2026-04-30 19:37 40.58938 -73.81012 2834 ft 204 kts 211°
2026-04-30 19:37 40.57660 -73.81960 3327 ft 217 kts 211°
2026-04-30 19:37 40.56287 -73.82979 3588 ft 243 kts 211°
2026-04-30 19:38 40.54740 -73.84130 4054 ft 257 kts 211°
2026-04-30 19:38 40.53189 -73.85279 4805 ft 261 kts 212°
2026-04-30 19:38 40.51599 -73.86446 5583 ft 264 kts 212°
2026-04-30 19:38 40.49939 -73.87658 5900 ft 286 kts 212°
2026-04-30 19:39 40.48154 -73.88957 6396 ft 298 kts 212°
2026-04-30 19:39 40.46329 -73.90276 7160 ft 300 kts 212°
2026-04-30 19:39 40.44495 -73.91592 7975 ft 301 kts 212°
2026-04-30 19:39 40.42649 -73.92905 8768 ft 303 kts 212°
2026-04-30 19:40 40.40693 -73.93991 9502 ft 313 kts 193°
2026-04-30 19:40 40.38492 -73.93824 10216 ft 325 kts 168°
2026-04-30 19:40 40.36429 -73.92511 10916 ft 337 kts 148°
2026-04-30 19:40 40.34746 -73.90304 11556 ft 350 kts 130°
2026-04-30 19:41 40.33621 -73.87423 12182 ft 362 kts 113°
2026-04-30 19:41 40.32884 -73.84289 12814 ft 368 kts 109°
2026-04-30 19:41 40.32234 -73.81021 13419 ft 374 kts 108°
2026-04-30 19:41 40.31593 -73.77700 13988 ft 378 kts 108°
2026-04-30 19:42 40.30932 -73.74348 14577 ft 380 kts 109°
2026-04-30 19:42 40.30247 -73.70984 15155 ft 383 kts 109°
2026-04-30 19:42 40.29541 -73.67597 15723 ft 386 kts 110°
2026-04-30 19:42 40.28820 -73.64192 16294 ft 390 kts 110°
2026-04-30 19:43 40.28093 -73.60796 16926 ft 384 kts 106°
2026-04-30 19:43 40.27372 -73.57420 17136 ft 400 kts 105°
2026-04-30 19:43 40.26606 -73.53838 17286 ft 416 kts 105°
2026-04-30 19:44 40.24983 -73.46276 17833 ft 438 kts 105°
2026-04-30 19:44 40.24007 -73.42557 18789 ft 425 kts 118°
2026-04-30 19:44 40.22497 -73.39314 19552 ft 416 kts 131°
2026-04-30 19:44 40.20506 -73.36452 18867 ft 441 kts 135°
2026-04-30 19:45 40.17839 -73.33924 17829 ft 500 kts 121°
2026-04-30 19:45 40.14619 -73.31607 17763 ft 560 kts 146°
2026-04-30 19:45 40.10694 -73.30373 17951 ft 616 kts 155°
2026-04-30 19:45 40.06183 -73.30342 17763 ft 677 kts 180°
2026-04-30 19:46 40.01536 -73.31828 17942 ft 697 kts 203°
2026-04-30 19:46 39.97227 -73.34685 18013 ft 691 kts 226°
2026-04-30 19:46 39.93648 -73.38669 18158 ft 653 kts 250°
2026-04-30 19:46 39.91197 -73.43212 18930 ft 575 kts 272°
2026-04-30 19:47 39.89315 -73.47727 19909 ft 578 kts 266°
2026-04-30 19:47 39.87693 -73.50624 20504 ft 618 kts 251°
2026-04-30 19:47 39.83445 -73.55940 21562 ft 636 kts 229°
2026-04-30 19:47 39.80038 -73.59600 22256 ft 635 kts 225°
2026-04-30 19:48 39.76557 -73.63164 22748 ft 638 kts 223°
2026-04-30 19:48 39.72657 -73.66240 23339 ft 683 kts 219°
2026-04-30 19:48 39.68097 -73.68075 24208 ft 705 kts 197°
2026-04-30 19:48 39.63207 -73.68582 25044 ft 703 kts 177°
2026-04-30 19:49 39.58381 -73.68141 25910 ft 689 kts 169°
2026-04-30 19:49 39.49003 -73.66716 27470 ft 668 kts 169°
2026-04-30 19:49 39.44416 -73.65862 28002 ft 663 kts 168°
2026-04-30 19:50 39.36790 -73.64388 28039 ft 667 kts 167°
2026-04-30 19:50 39.32215 -73.63496 27984 ft 660 kts 167°
2026-04-30 19:50 39.26232 -73.62333 27984 ft 653 kts 167°
2026-04-30 19:51 39.18690 -73.60868 28014 ft 654 kts 167°
2026-04-30 19:51 39.09725 -73.59125 28017 ft 657 kts 167°
2026-04-30 19:52 39.00670 -73.57364 28010 ft 659 kts 167°
2026-04-30 19:52 38.91600 -73.55603 28000 ft 659 kts 167°
2026-04-30 19:53 38.87069 -73.54724 27998 ft 658 kts 167°
2026-04-30 19:53 38.82537 -73.53862 27994 ft 659 kts 172°
2026-04-30 19:53 38.77942 -73.53768 27971 ft 662 kts 188°
2026-04-30 19:53 38.73392 -73.54998 28049 ft 677 kts 189°
2026-04-30 19:54 38.68945 -73.57228 28082 ft 699 kts 202°
2026-04-30 19:54 38.64719 -73.60439 27996 ft 710 kts 219°
2026-04-30 19:54 38.56883 -73.68203 28011 ft 724 kts 220°
2026-04-30 19:55 38.48928 -73.76342 28014 ft 739 kts 219°
2026-04-30 19:55 38.40731 -73.84481 28012 ft 752 kts 218°
2026-04-30 19:56 38.32321 -73.92600 28015 ft 764 kts 217°
2026-04-30 19:56 38.23760 -74.00803 28010 ft 774 kts 217°
2026-04-30 19:57 38.15179 -74.09047 28010 ft 781 kts 217°
2026-04-30 19:57 38.06483 -74.17411 28003 ft 785 kts 217°
2026-04-30 19:58 37.97736 -74.25801 28001 ft 788 kts 217°
2026-04-30 19:58 37.93358 -74.29986 27998 ft 788 kts 217°
2026-04-30 19:58 37.88976 -74.34167 27992 ft 787 kts 217°
2026-04-30 19:59 37.84594 -74.38340 27994 ft 787 kts 217°
2026-04-30 19:59 37.80218 -74.42500 27993 ft 787 kts 217°
2026-04-30 20:00 37.67126 -74.54912 28002 ft 787 kts 217°
2026-04-30 20:00 37.62741 -74.59057 28000 ft 787 kts 217°
2026-04-30 20:00 37.58358 -74.63195 28001 ft 787 kts 217°
2026-04-30 20:01 37.45190 -74.75588 28002 ft 787 kts 217°
2026-04-30 20:01 37.40796 -74.79710 27999 ft 787 kts 216°
2026-04-30 20:01 37.36398 -74.83830 28003 ft 787 kts 216°
2026-04-30 20:02 37.27660 -74.91998 28000 ft 787 kts 216°
2026-04-30 20:02 37.23206 -74.96153 28001 ft 787 kts 216°
2026-04-30 20:03 37.14461 -75.04290 28000 ft 787 kts 216°
2026-04-30 20:03 37.10058 -75.08379 28000 ft 787 kts 216°
2026-04-30 20:03 37.05656 -75.12460 27999 ft 787 kts 216°
2026-04-30 20:03 37.01248 -75.16541 27998 ft 787 kts 216°
2026-04-30 20:04 36.92436 -75.24681 28005 ft 787 kts 216°
2026-04-30 20:05 36.79196 -75.36866 27998 ft 787 kts 216°
2026-04-30 20:05 36.65952 -75.49003 28002 ft 787 kts 216°
2026-04-30 20:06 36.57173 -75.57018 27998 ft 787 kts 216°
2026-04-30 20:06 36.48324 -75.65074 28004 ft 787 kts 216°
2026-04-30 20:07 36.39483 -75.73099 28004 ft 787 kts 216°
2026-04-30 20:08 36.26200 -75.85113 28004 ft 787 kts 216°
2026-04-30 20:08 36.17340 -75.93098 27995 ft 787 kts 215°
2026-04-30 20:08 36.12895 -75.97095 27996 ft 787 kts 215°
2026-04-30 20:09 36.08460 -76.01078 28000 ft 787 kts 215°
2026-04-30 20:09 36.04024 -76.05056 27996 ft 787 kts 215°
2026-04-30 20:09 35.95153 -76.12994 28005 ft 787 kts 215°
2026-04-30 20:10 35.86320 -76.20876 27998 ft 787 kts 215°
2026-04-30 20:10 35.81882 -76.24827 28001 ft 787 kts 215°
2026-04-30 20:11 35.68544 -76.36670 28001 ft 787 kts 215°
2026-04-30 20:11 35.59654 -76.44536 28004 ft 787 kts 215°
2026-04-30 20:12 35.50807 -76.52342 28000 ft 787 kts 215°
2026-04-30 20:12 35.46354 -76.56263 28003 ft 787 kts 215°
2026-04-30 20:13 35.37438 -76.64097 27998 ft 787 kts 214°
2026-04-30 20:13 35.32987 -76.68000 27999 ft 787 kts 214°
2026-04-30 20:13 35.28528 -76.71904 28004 ft 787 kts 214°
2026-04-30 20:13 35.24062 -76.75809 27998 ft 787 kts 214°
2026-04-30 20:14 35.19600 -76.79706 27997 ft 787 kts 214°
2026-04-30 20:14 35.15207 -76.83537 27997 ft 787 kts 214°
2026-04-30 20:14 35.10738 -76.87413 28005 ft 787 kts 212°
2026-04-30 20:14 35.06019 -76.90835 27748 ft 793 kts 207°
2026-04-30 20:15 35.00913 -76.93301 27833 ft 784 kts 197°
2026-04-30 20:15 34.95719 -76.95259 27932 ft 780 kts 192°
2026-04-30 20:15 34.90473 -76.96988 27983 ft 780 kts 190°
2026-04-30 20:16 34.79959 -77.00438 27999 ft 784 kts 192°
2026-04-30 20:16 34.74782 -77.02303 27996 ft 786 kts 194°
2026-04-30 20:16 34.69562 -77.04300 27997 ft 787 kts 197°
2026-04-30 20:16 34.64363 -77.06368 28000 ft 787 kts 197°
2026-04-30 20:17 34.59161 -77.08468 27998 ft 787 kts 197°
2026-04-30 20:17 34.53964 -77.10560 28000 ft 787 kts 197°
2026-04-30 20:17 34.48748 -77.12634 28004 ft 787 kts 197°
2026-04-30 20:18 34.38280 -77.16560 28002 ft 786 kts 194°
2026-04-30 20:18 34.27860 -77.20332 28004 ft 787 kts 195°
2026-04-30 20:18 34.22626 -77.22287 28000 ft 787 kts 196°
2026-04-30 20:19 34.17397 -77.24287 28003 ft 787 kts 196°
2026-04-30 20:19 34.13941 -77.25626 27997 ft 787 kts 197°
2026-04-30 20:19 34.06971 -77.28347 28000 ft 787 kts 197°
2026-04-30 20:20 33.96550 -77.32401 28004 ft 787 kts 196°
2026-04-30 20:20 33.86113 -77.36412 28001 ft 787 kts 196°
2026-04-30 20:20 33.80954 -77.38382 27996 ft 787 kts 196°
2026-04-30 20:21 33.75733 -77.40371 28001 ft 787 kts 196°
2026-04-30 20:21 33.65271 -77.44354 27996 ft 787 kts 196°
2026-04-30 20:22 33.54826 -77.48327 28004 ft 787 kts 196°
2026-04-30 20:22 33.44368 -77.52298 28000 ft 787 kts 196°
2026-04-30 20:23 33.34002 -77.56223 28000 ft 787 kts 196°
2026-04-30 20:23 33.23552 -77.60169 28004 ft 787 kts 196°
2026-04-30 20:24 33.13100 -77.64105 28004 ft 787 kts 196°
2026-04-30 20:24 33.07878 -77.66068 28000 ft 787 kts 196°
2026-04-30 20:24 33.02652 -77.68030 28003 ft 787 kts 196°
2026-04-30 20:25 32.86987 -77.73898 28003 ft 787 kts 196°
2026-04-30 20:25 32.81754 -77.75853 28000 ft 787 kts 196°
2026-04-30 20:26 32.71364 -77.79727 28001 ft 787 kts 196°
2026-04-30 20:26 32.55684 -77.85557 28001 ft 787 kts 195°
2026-04-30 20:27 32.45209 -77.89440 27998 ft 787 kts 195°
2026-04-30 20:27 32.34818 -77.93282 28003 ft 787 kts 195°
2026-04-30 20:28 32.13890 -78.00992 28000 ft 787 kts 195°
2026-04-30 20:29 32.03487 -78.04811 27998 ft 787 kts 195°
2026-04-30 20:30 31.87784 -78.10558 27997 ft 787 kts 195°
2026-04-30 20:30 31.72090 -78.16282 28000 ft 787 kts 195°
2026-04-30 20:31 31.56455 -78.21964 28000 ft 787 kts 195°
2026-04-30 20:32 31.40752 -78.27650 28000 ft 787 kts 195°
2026-04-30 20:32 31.30285 -78.31429 28002 ft 787 kts 195°
2026-04-30 20:33 31.25053 -78.33315 27998 ft 787 kts 195°
2026-04-30 20:33 31.14644 -78.37060 28001 ft 787 kts 195°
2026-04-30 20:34 30.98946 -78.42692 27998 ft 787 kts 195°
2026-04-30 20:35 30.83234 -78.48310 28000 ft 787 kts 195°
2026-04-30 20:35 30.67583 -78.53886 27999 ft 787 kts 198°
2026-04-30 20:36 30.57100 -78.57612 28003 ft 787 kts 198°
2026-04-30 20:37 30.41371 -78.63185 28000 ft 787 kts 198°
2026-04-30 20:37 30.36133 -78.65037 27997 ft 787 kts 198°
2026-04-30 20:37 30.30883 -78.66891 28003 ft 787 kts 198°
2026-04-30 20:38 30.20453 -78.70569 27999 ft 787 kts 197°
2026-04-30 20:38 30.15206 -78.72383 28000 ft 787 kts 196°
2026-04-30 20:38 30.09930 -78.74125 28004 ft 787 kts 195°
2026-04-30 20:39 29.99362 -78.77500 28000 ft 787 kts 195°
2026-04-30 20:39 29.94079 -78.79192 28003 ft 787 kts 195°
2026-04-30 20:40 29.78247 -78.84325 28000 ft 787 kts 193°
2026-04-30 20:40 29.72886 -78.85546 27999 ft 783 kts 184°
2026-04-30 20:40 29.67496 -78.86337 28015 ft 780 kts 180°
2026-04-30 20:41 29.56760 -78.87435 27999 ft 778 kts 178°
2026-04-30 20:41 29.51360 -78.87978 27998 ft 779 kts 179°
2026-04-30 20:41 29.40564 -78.89278 28002 ft 781 kts 181°
2026-04-30 20:42 29.31576 -78.90523 28002 ft 781 kts 181°
2026-04-30 20:42 29.20837 -78.92037 27972 ft 765 kts 181°
2026-04-30 20:43 29.15610 -78.92763 27964 ft 744 kts 181°
2026-04-30 20:43 29.10539 -78.93454 27966 ft 725 kts 180°
2026-04-30 20:43 29.05594 -78.94116 27969 ft 707 kts 180°
2026-04-30 20:44 28.91044 -78.96004 28019 ft 708 kts 179°
2026-04-30 20:45 28.71306 -78.98606 28002 ft 715 kts 180°
2026-04-30 20:45 28.66374 -78.99266 27989 ft 711 kts 180°
2026-04-30 20:45 28.61538 -78.99911 27988 ft 707 kts 180°
2026-04-30 20:46 28.41917 -79.02491 28006 ft 711 kts 180°
2026-04-30 20:47 28.32083 -79.04011 27985 ft 718 kts 192°
2026-04-30 20:47 28.27279 -79.05553 28023 ft 718 kts 199°
2026-04-30 20:48 28.17911 -79.09282 27998 ft 717 kts 203°
2026-04-30 20:48 28.13223 -79.11226 27997 ft 717 kts 202°
2026-04-30 20:48 28.08512 -79.13120 27993 ft 717 kts 201°
2026-04-30 20:48 28.03784 -79.14945 27993 ft 717 kts 200°
2026-04-30 20:49 27.99051 -79.16710 27998 ft 717 kts 199°
2026-04-30 20:49 27.94308 -79.18445 27998 ft 716 kts 199°
2026-04-30 20:49 27.89558 -79.20172 27507 ft 717 kts 199°
2026-04-30 20:50 27.80010 -79.23668 25397 ft 735 kts 199°
2026-04-30 20:50 27.75095 -79.25484 24222 ft 748 kts 199°
2026-04-30 20:50 27.70119 -79.27328 24010 ft 757 kts 199°
2026-04-30 20:50 27.65089 -79.29191 23997 ft 763 kts 199°
2026-04-30 20:51 27.60096 -79.31035 23978 ft 760 kts 199°
2026-04-30 20:51 27.50303 -79.34635 23948 ft 720 kts 199°
2026-04-30 20:51 27.45602 -79.36361 23945 ft 701 kts 199°
2026-04-30 20:52 27.41012 -79.38047 23950 ft 684 kts 200°
2026-04-30 20:52 27.36538 -79.39691 23946 ft 668 kts 200°
2026-04-30 20:52 27.27859 -79.42876 23964 ft 647 kts 200°
2026-04-30 20:53 27.23644 -79.44419 24195 ft 625 kts 199°
2026-04-30 20:53 27.19602 -79.45896 24058 ft 609 kts 199°
2026-04-30 20:53 27.15633 -79.47346 23983 ft 592 kts 199°
2026-04-30 20:54 27.08020 -79.50128 23972 ft 558 kts 199°
2026-04-30 20:54 27.04379 -79.51457 23972 ft 542 kts 199°
2026-04-30 20:54 27.00844 -79.52745 23959 ft 526 kts 198°
2026-04-30 20:55 26.94136 -79.55188 23868 ft 490 kts 198°
2026-04-30 20:55 26.90981 -79.56337 23764 ft 475 kts 198°
2026-04-30 20:55 26.87875 -79.57463 22745 ft 462 kts 201°
2026-04-30 20:56 26.81830 -79.59684 21079 ft 454 kts 205°
2026-04-30 20:56 26.79036 -79.61255 20295 ft 446 kts 216°
2026-04-30 20:56 26.74011 -79.65142 19006 ft 433 kts 218°
2026-04-30 20:57 26.71551 -79.67067 18353 ft 429 kts 218°
2026-04-30 20:57 26.69106 -79.68967 17598 ft 426 kts 218°
2026-04-30 20:57 26.66679 -79.70837 16883 ft 421 kts 218°
2026-04-30 20:58 26.61893 -79.74497 15545 ft 412 kts 218°
2026-04-30 20:58 26.59535 -79.76294 14888 ft 408 kts 217°
2026-04-30 20:58 26.57197 -79.78073 14241 ft 405 kts 217°
2026-04-30 20:58 26.54906 -79.79816 13611 ft 401 kts 217°
2026-04-30 20:59 26.50337 -79.83291 12246 ft 394 kts 217°
2026-04-30 20:59 26.48080 -79.85005 11598 ft 391 kts 217°
2026-04-30 21:00 26.43675 -79.88348 11083 ft 368 kts 217°
2026-04-30 21:00 26.39587 -79.91447 11014 ft 349 kts 217°
2026-04-30 21:01 26.35554 -79.94510 11012 ft 351 kts 217°
2026-04-30 21:01 26.33539 -79.96039 11003 ft 350 kts 217°
2026-04-30 21:01 26.29507 -79.99092 10998 ft 350 kts 217°
2026-04-30 21:02 26.27495 -80.00614 10996 ft 350 kts 217°
2026-04-30 21:02 26.25429 -80.02060 10987 ft 351 kts 207°
2026-04-30 21:02 26.23147 -80.02801 11010 ft 340 kts 194°
2026-04-30 21:02 26.20878 -80.03291 10983 ft 324 kts 194°
2026-04-30 21:03 26.18717 -80.03748 10979 ft 309 kts 194°
2026-04-30 21:03 26.16651 -80.04195 10967 ft 298 kts 194°
2026-04-30 21:03 26.14628 -80.04645 10787 ft 294 kts 194°
2026-04-30 21:03 26.12625 -80.05099 10415 ft 294 kts 195°
2026-04-30 21:04 26.10614 -80.05558 10026 ft 296 kts 195°
2026-04-30 21:04 26.08599 -80.06018 9695 ft 294 kts 195°
2026-04-30 21:04 26.04655 -80.06969 9047 ft 290 kts 197°
2026-04-30 21:05 26.02696 -80.07485 8706 ft 288 kts 197°
2026-04-30 21:05 26.00750 -80.07999 8392 ft 287 kts 196°
2026-04-30 21:05 25.98815 -80.08506 8095 ft 284 kts 196°
2026-04-30 21:05 25.96875 -80.09012 8034 ft 288 kts 196°
2026-04-30 21:06 25.94923 -80.09520 7998 ft 288 kts 196°
2026-04-30 21:06 25.92978 -80.10024 7996 ft 285 kts 197°
2026-04-30 21:06 25.91124 -80.10730 7996 ft 279 kts 208°
2026-04-30 21:06 25.89387 -80.11715 8006 ft 281 kts 211°
2026-04-30 21:07 25.87663 -80.12761 8018 ft 283 kts 211°
2026-04-30 21:07 25.85933 -80.13808 8016 ft 293 kts 211°
2026-04-30 21:07 25.84049 -80.14935 8021 ft 321 kts 211°
2026-04-30 21:07 25.82005 -80.16139 8023 ft 344 kts 210°
2026-04-30 21:08 25.79817 -80.17411 8013 ft 364 kts 210°
2026-04-30 21:08 25.77550 -80.18719 7913 ft 364 kts 210°
2026-04-30 21:08 25.75302 -80.20015 7201 ft 364 kts 211°
2026-04-30 21:08 25.73350 -80.21702 6550 ft 359 kts 231°
2026-04-30 21:09 25.72043 -80.24014 6020 ft 351 kts 249°
2026-04-30 21:09 25.71383 -80.26606 5370 ft 349 kts 258°
2026-04-30 21:09 25.71036 -80.29260 4780 ft 345 kts 267°
2026-04-30 21:09 25.70954 -80.31909 4155 ft 343 kts 268°
2026-04-30 21:10 25.70887 -80.34548 3561 ft 341 kts 268°
2026-04-30 21:10 25.70796 -80.37186 2887 ft 343 kts 267°
2026-04-30 21:10 25.70682 -80.39814 2302 ft 341 kts 265°
2026-04-30 21:10 25.70707 -80.42441 1837 ft 340 kts 280°
2026-04-30 21:11 25.71670 -80.44765 1702 ft 328 kts 308°
2026-04-30 21:11 25.73417 -80.46244 1592 ft 319 kts 337°
2026-04-30 21:11 25.75545 -80.46597 1514 ft 305 kts
2026-04-30 21:11 25.77428 -80.45760 1522 ft 285 kts 39°
2026-04-30 21:12 25.78536 -80.44091 1504 ft 258 kts 75°
2026-04-30 21:12 25.78579 -80.42248 1530 ft 228 kts 107°
2026-04-30 21:12 25.78331 -80.40592 1477 ft 207 kts 95°
2026-04-30 21:12 25.78307 -80.39082 1371 ft 190 kts 92°
2026-04-30 21:13 25.78357 -80.37665 1178 ft 174 kts 90°
2026-04-30 21:13 25.78411 -80.36384 939 ft 158 kts 91°
2026-04-30 21:13 25.78459 -80.35217 760 ft 151 kts 91°
2026-04-30 21:13 25.78500 -80.34040 563 ft 154 kts 95°
2026-04-30 21:14 25.78558 -80.32884 361 ft 148 kts 89°
2026-04-30 21:14 25.78620 -80.31720 179 ft 153 kts 92°
2026-04-30 21:14 25.78653 -80.30570 19 ft 140 kts 89°
2026-04-30 21:14 25.78689 -80.29628 17 ft 100 kts 87°
2026-04-30 21:15 25.78715 -80.29024 16 ft 56 kts 88°
2026-04-30 21:15 25.78778 -80.28718 16 ft 34 kts 50°
2026-04-30 21:15 25.78954 -80.28561 17 ft 31 kts 35°
2026-04-30 21:15 25.79128 -80.28431 16 ft 29 kts 34°
2026-04-30 21:16 25.79285 -80.28325 18 ft 25 kts 44°
2026-04-30 21:16 25.79388 -80.28195 19 ft 18 kts 27°
2026-04-30 21:16 25.79441 -80.28165 20 ft 0 kts 25°